Weather History for Shenandoah, IA

Change the Weather History Date:

Tuesday, January 29, 2013

  Actual Average Record
Temperature  
Mean Temperature 48 °F -  
Max Temperature 62 °F 34 °F 64 °F (1954)
Min Temperature 35 °F 14 °F -18 °F (1966)
Degree Days  
Heating Degree Days 16    
Moisture  
Dew Point 34 °F    
Average Humidity 80    
Maximum Humidity 87    
Minimum Humidity 75    
Precipitation  
Precipitation 0.02 in - - ()
Sea Level Pressure  
Sea Level Pressure 29.63 in    
Wind  
Wind Speed 11 mph (North)    
Max Wind Speed 18 mph    
Max Gust Speed 25 mph    
Visibility 6 miles    
Events Snow    
Averages and records for this station are not official NWS values.
T = Trace of Precipitation, MM = Missing Value Source: NWS Daily Summary

Daily Weather History Graph

Daily Weather History Graph

Search for Another Location

Airport:

Trip Planner

Search our weather history database for the weather conditions in past years. The results will help you decide how hot, cold, wet, or windy it might be!

Date:

Astronomy

Jan. 29, 2013 Rise Set
Actual Time 7:34 AM CST 5:35 PM CST
Civil Twilight 7:05 AM CST 6:05 PM CST
Nautical Twilight 6:32 AM CST 6:38 PM CST
Astronomical Twilight 5:59 AM CST 7:10 PM CST
Moon 8:34 PM CST (1/29) 8:30 AM CST (1/29)
Length of Visible Light 11h 00m
Length of Day
10h 01m
Waning Gibbous, 93% of the Moon is Illuminated
Jan 29
Waning Gibbous
Feb 3
Last Quarter
Feb 10
New
Feb 17
First Quarter
Feb 25
Full

Hourly Weather History & Observations

Time (CST) Temp. Windchill Dew Point Humidity Pressure Visibility Wind Dir Wind Speed Gust Speed Precip Events Conditions
12:15 AM 62.6 °F - 55.4 °F 77% 29.53 in 10.0 mi South 16.1 mph 24.2 mph N/A   Mostly Cloudy
12:35 AM 62.6 °F - 55.4 °F 77% 29.54 in 10.0 mi South 17.3 mph 25.3 mph N/A   Scattered Clouds
12:55 AM 62.6 °F - 55.4 °F 77% 29.54 in 10.0 mi SSW 16.1 mph - N/A   Mostly Cloudy
1:15 AM 62.6 °F - 55.4 °F 77% 29.53 in 10.0 mi SW 10.4 mph - N/A   Overcast
1:35 AM 60.8 °F - 55.4 °F 82% 29.54 in 10.0 mi West 5.8 mph - N/A   Mostly Cloudy
1:55 AM 55.4 °F - 48.2 °F 77% 29.57 in 7.0 mi WNW 13.8 mph 23.0 mph N/A   Mostly Cloudy
2:15 AM 48.2 °F - 42.8 °F 82% 29.58 in 5.0 mi WNW 11.5 mph 18.4 mph N/A   Haze
2:35 AM 46.4 °F 41.9 °F 41.0 °F 81% 29.60 in 4.0 mi WNW 9.2 mph 17.3 mph N/A   Haze
2:55 AM 44.6 °F 40.7 °F 39.2 °F 81% 29.61 in 4.0 mi NW 6.9 mph - N/A   Haze
3:15 AM 44.6 °F 40.2 °F 39.2 °F 81% 29.62 in 3.0 mi WNW 8.1 mph - N/A   Overcast
3:35 AM 44.6 °F 39.2 °F 39.2 °F 81% 29.64 in 2.5 mi WNW 10.4 mph 17.3 mph N/A   Haze
3:55 AM 42.8 °F 37.0 °F 37.4 °F 81% 29.64 in 3.0 mi NW 10.4 mph - N/A   Overcast
4:15 AM 41.0 °F 36.4 °F 37.4 °F 87% 29.63 in 4.0 mi NNW 6.9 mph - N/A   Overcast
4:35 AM 41.0 °F 35.2 °F 35.6 °F 81% 29.63 in 3.0 mi NNW 9.2 mph - N/A   Haze
4:55 AM 41.0 °F 35.2 °F 35.6 °F 81% 29.63 in 4.0 mi NNW 9.2 mph - N/A   Haze
5:15 AM 39.2 °F 34.2 °F 35.6 °F 87% 29.64 in 4.0 mi NNW 6.9 mph - N/A   Haze
5:35 AM 39.2 °F 35.0 °F 35.6 °F 87% 29.66 in 4.0 mi NW 5.8 mph - N/A   Haze
5:55 AM 39.2 °F 37.0 °F 33.8 °F 81% 29.65 in 5.0 mi North 3.5 mph - N/A   Haze
6:15 AM 39.2 °F 37.0 °F 33.8 °F 81% 29.64 in 5.0 mi North 3.5 mph - N/A   Haze
6:35 AM 39.2 °F 37.0 °F 33.8 °F 81% 29.67 in 10.0 mi NNW 3.5 mph - N/A   Overcast
6:55 AM 37.4 °F 30.8 °F 32.0 °F 81% 29.66 in 10.0 mi NNW 9.2 mph - N/A   Overcast
7:15 AM 37.4 °F 32.1 °F 32.0 °F 81% 29.67 in 10.0 mi NNW 6.9 mph - N/A   Overcast
7:35 AM 37.4 °F 32.8 °F 32.0 °F 81% 29.69 in 10.0 mi WNW 5.8 mph - N/A   Overcast
7:55 AM 37.4 °F 32.8 °F 30.2 °F 75% 29.67 in 10.0 mi NNW 5.8 mph - N/A   Overcast
8:15 AM 37.4 °F 32.1 °F 32.0 °F 81% 29.68 in 4.0 mi NW 6.9 mph - N/A   Haze
8:35 AM 37.4 °F 32.1 °F 32.0 °F 81% 29.69 in 3.0 mi NNW 6.9 mph - N/A   Haze
9:15 AM 37.4 °F 34.9 °F 32.0 °F 81% 29.71 in 2.5 mi NNW 3.5 mph - N/A   Haze
9:35 AM 37.4 °F 30.8 °F 30.2 °F 75% 29.70 in 2.5 mi NNW 9.2 mph - N/A   Haze
9:55 AM 37.4 °F 31.4 °F 32.0 °F 81% 29.70 in 2.0 mi NNW 8.1 mph - N/A   Haze
10:15 AM 37.4 °F 30.8 °F 32.0 °F 81% 29.69 in 2.0 mi North 9.2 mph - N/A   Haze
10:35 AM 37.4 °F 30.3 °F 32.0 °F 81% 29.69 in 4.0 mi North 10.4 mph - N/A   Haze
10:55 AM 37.4 °F 30.3 °F 32.0 °F 81% 29.66 in 5.0 mi North 10.4 mph - N/A   Haze
11:15 AM 37.4 °F 29.8 °F 32.0 °F 81% 29.67 in 5.0 mi North 11.5 mph - N/A   Haze
11:35 AM 37.4 °F 29.8 °F 32.0 °F 81% 29.67 in 4.0 mi North 11.5 mph - N/A   Haze
11:55 AM 37.4 °F 29.3 °F 32.0 °F 81% 29.66 in 3.0 mi NNE 12.7 mph - N/A   Haze
12:15 PM 37.4 °F 28.9 °F 32.0 °F 81% 29.64 in 3.0 mi NNE 13.8 mph - N/A   Haze
12:35 PM 37.4 °F 30.8 °F 32.0 °F 81% 29.64 in 4.0 mi North 9.2 mph - N/A   Haze
12:55 PM 37.4 °F 30.8 °F 32.0 °F 81% 29.63 in 5.0 mi North 9.2 mph - N/A   Haze
1:15 PM 37.4 °F 30.3 °F 32.0 °F 81% 29.63 in 7.0 mi North 10.4 mph - N/A   Overcast
1:35 PM 37.4 °F 29.3 °F 32.0 °F 81% 29.62 in 7.0 mi North 12.7 mph - N/A   Overcast
1:55 PM 37.4 °F 30.8 °F 32.0 °F 81% 29.61 in 7.0 mi North 9.2 mph - N/A   Overcast
2:15 PM 37.4 °F 29.8 °F 32.0 °F 81% 29.60 in 7.0 mi North 11.5 mph - N/A   Overcast
2:35 PM 37.4 °F 28.9 °F 32.0 °F 81% 29.60 in 5.0 mi North 13.8 mph 17.3 mph N/A   Haze
2:55 PM 37.4 °F 29.8 °F 32.0 °F 81% 29.61 in 5.0 mi North 11.5 mph 16.1 mph N/A   Haze
3:15 PM 37.4 °F 29.3 °F 32.0 °F 81% 29.61 in 5.0 mi North 12.7 mph - N/A   Haze
3:35 PM 37.4 °F 28.9 °F 32.0 °F 81% 29.62 in 4.0 mi North 13.8 mph 19.6 mph N/A   Haze
3:55 PM 37.4 °F 30.3 °F 30.2 °F 75% 29.62 in 7.0 mi North 10.4 mph - N/A   Overcast
4:15 PM 37.4 °F 29.8 °F 30.2 °F 75% 29.61 in 7.0 mi North 11.5 mph - N/A   Overcast
4:35 PM 37.4 °F 30.3 °F 30.2 °F 75% 29.63 in 7.0 mi North 10.4 mph - N/A   Overcast
4:55 PM 37.4 °F 29.8 °F 30.2 °F 75% 29.61 in 10.0 mi North 11.5 mph - N/A   Overcast
5:15 PM 37.4 °F 30.3 °F 30.2 °F 75% 29.61 in 10.0 mi North 10.4 mph - N/A   Overcast
5:35 PM 37.4 °F 32.1 °F 30.2 °F 75% 29.63 in 10.0 mi North 6.9 mph 11.5 mph N/A   Overcast
5:55 PM 37.4 °F 29.3 °F 30.2 °F 75% 29.63 in 10.0 mi NNE 12.7 mph - N/A   Overcast
6:15 PM 37.4 °F 29.8 °F 30.2 °F 75% 29.62 in 10.0 mi NNE 11.5 mph - N/A   Overcast
6:35 PM 37.4 °F 28.9 °F 30.2 °F 75% 29.62 in 10.0 mi NNE 13.8 mph - N/A   Overcast
6:55 PM 37.4 °F 29.8 °F 30.2 °F 75% 29.63 in 10.0 mi NNE 11.5 mph - N/A   Overcast
7:15 PM 37.4 °F 29.8 °F 30.2 °F 75% 29.62 in 10.0 mi North 11.5 mph - N/A   Overcast
7:35 PM 37.4 °F 30.3 °F 30.2 °F 75% 29.63 in 7.0 mi North 10.4 mph 19.6 mph N/A   Overcast
7:55 PM 35.6 °F 25.9 °F 30.2 °F 81% 29.64 in 5.0 mi North 16.1 mph - N/A Snow Light Snow
8:15 PM 35.6 °F 28.0 °F 30.2 °F 81% 29.66 in 4.0 mi NNE 10.4 mph - N/A Snow Light Snow
8:35 PM 35.6 °F 27.5 °F 30.2 °F 81% 29.64 in 2.5 mi NNE 11.5 mph - N/A Snow Light Snow
8:55 PM 35.6 °F 26.6 °F 30.2 °F 81% 29.62 in 1.8 mi NNE 13.8 mph - N/A Snow Light Snow
9:15 PM 35.6 °F 26.6 °F 30.2 °F 81% 29.62 in 2.5 mi NNE 13.8 mph - N/A Snow Light Snow
9:35 PM 35.6 °F 27.1 °F 30.2 °F 81% 29.60 in 2.5 mi NNE 12.7 mph 20.7 mph N/A Snow Light Snow
9:55 PM 35.6 °F 28.0 °F 30.2 °F 81% 29.61 in 4.0 mi NNE 10.4 mph - N/A Snow Light Snow
10:15 PM 35.6 °F 25.2 °F 30.2 °F 81% 29.62 in 5.0 mi NNE 18.4 mph 23.0 mph N/A Snow Light Snow
10:35 PM 35.6 °F 26.6 °F 30.2 °F 81% 29.60 in 5.0 mi NNE 13.8 mph 19.6 mph N/A Snow Light Snow
10:55 PM 35.6 °F 25.5 °F 30.2 °F 81% 29.60 in 4.0 mi North 17.3 mph 24.2 mph 0.01 in Snow Light Snow
11:15 PM 35.6 °F 26.6 °F 28.4 °F 75% 29.59 in 2.5 mi North 13.8 mph - N/A Snow Light Snow
11:35 PM 35.6 °F 25.5 °F 28.4 °F 75% 29.56 in 1.5 mi North 17.3 mph 21.9 mph 0.01 in Snow Light Snow
11:55 PM 35.6 °F 25.5 °F 28.4 °F 75% 29.58 in 1.2 mi North 17.3 mph 21.9 mph 0.01 in Snow Light Snow